timestamp,surface_pressure_avg,surface_temp_avg,battery_voltage,lat,long
2023-01-24 00:09:00+00:00,357.0396,2.6,12.49,47.84626,-54.09684
2023-01-24 00:19:00+00:00,358.4129,2.59,12.49,47.84626,-54.09684
2023-01-24 00:29:00+00:00,356.32800000000015,2.59,12.49,47.84626,-54.09684
2023-01-24 00:39:00+00:00,353.2996,2.59,12.49,47.84626,-54.09684
2023-01-24 00:49:00+00:00,357.7479,2.59,12.49,47.84626,-54.09684
2023-01-24 00:59:00+00:00,359.4379,2.59,12.49,47.84626,-54.09684
2023-01-24 01:09:00+00:00,363.6929,2.59,12.49,47.84626,-54.09684
2023-01-24 01:19:01+00:00,365.2129,2.6,12.49,47.84626,-54.09684
2023-01-24 01:29:01+00:00,362.1697,2.6,12.49,47.84626,-54.09684
2023-01-24 01:39:01+00:00,354.8314,2.59,12.49,47.84626,-54.09684
2023-01-24 01:49:01+00:00,352.5413,2.59,12.49,47.84626,-54.09684
2023-01-24 01:59:01+00:00,355.7664,2.59,12.49,47.84626,-54.09684
2023-01-24 02:09:01+00:00,360.30800000000005,2.59,12.49,47.84626,-54.09684
2023-01-24 02:19:00+00:00,365.8346,2.59,12.49,47.84626,-54.09684
2023-01-24 02:29:00+00:00,361.588,2.59,12.49,47.84626,-54.09684
2023-01-24 02:39:00+00:00,361.2147,2.58,12.49,47.84626,-54.09684
2023-01-24 02:49:00+00:00,354.298,2.55,12.49,47.84626,-54.09684
2023-01-24 02:59:00+00:00,353.3396,2.5,12.49,47.84626,-54.09684
2023-01-24 03:09:00+00:00,356.0796,2.5,12.49,47.84626,-54.09684
2023-01-24 03:19:00+00:00,349.978,2.5,12.49,47.84626,-54.09684
2023-01-24 03:29:00+00:00,337.348,2.5,12.49,47.84626,-54.09684
2023-01-24 03:39:00+00:00,329.708,2.5,12.49,47.84626,-54.09684
2023-01-24 03:49:00+00:00,327.86800000000005,2.5,12.49,47.84626,-54.09684
2023-01-24 03:59:00+00:00,316.3096,2.51,12.49,47.84626,-54.09684
2023-01-24 04:09:00+00:00,297.7647,2.5,12.49,47.84626,-54.09684
2023-01-24 04:19:00+00:00,289.8148,2.5,12.49,47.84626,-54.09684
2023-01-24 04:29:00+00:00,283.4681,2.5,12.49,47.84626,-54.09684
2023-01-24 04:39:00+00:00,273.1047,2.5,12.49,47.84626,-54.09684
2023-01-24 04:49:00+00:00,260.3181,2.5,12.49,47.84626,-54.09684
2023-01-24 04:59:00+00:00,259.2564,2.49,12.49,47.84626,-54.09684
2023-01-24 05:09:00+00:00,252.3531,2.47,12.49,47.84626,-54.09684
2023-01-24 05:19:00+00:00,237.2048,2.46,12.49,47.84626,-54.09684
2023-01-24 05:29:00+00:00,231.7364,2.44,12.49,47.84626,-54.09684
2023-01-24 05:39:00+00:00,236.9398,2.44,12.49,47.84626,-54.09684
2023-01-24 05:49:00+00:00,232.2264,2.43,12.49,47.84626,-54.09684
2023-01-24 05:59:00+00:00,224.5147,2.44,12.49,47.84626,-54.09684
2023-01-24 06:09:00+00:00,220.2581,2.43,12.49,47.84626,-54.09684
2023-01-24 06:19:00+00:00,218.8131,2.44,12.49,47.84626,-54.09684
2023-01-24 06:29:00+00:00,214.0631,2.44,12.49,47.84626,-54.09684
2023-01-24 06:39:00+00:00,204.3981,2.45,12.49,47.84626,-54.09684
2023-01-24 06:49:00+00:00,199.0431,2.45,12.49,47.84626,-54.09684
2023-01-24 06:59:00+00:00,201.7281,2.46,12.49,47.84626,-54.09684
2023-01-24 07:09:00+00:00,202.5581,2.46,12.49,47.84626,-54.09684
2023-01-24 07:19:00+00:00,197.2631,2.46,12.41,47.84626,-54.09684
2023-01-24 07:29:00+00:00,195.5998,2.46,12.41,47.84626,-54.09684
2023-01-24 07:39:00+00:00,194.7548,2.46,12.41,47.84626,-54.09684
2023-01-24 07:49:00+00:00,190.1998,2.46,12.41,47.84626,-54.09684
2023-01-24 07:59:00+00:00,189.6748,2.47,12.41,47.84626,-54.09684
2023-01-24 08:09:00+00:00,194.6648,2.49,12.41,47.84626,-54.09684
2023-01-24 08:19:00+00:00,195.8698,2.49,12.41,47.84626,-54.09684
2023-01-24 08:29:00+00:00,195.2931,2.49,12.41,47.84626,-54.09684
2023-01-24 08:39:00+00:00,198.8181,2.5,12.41,47.84626,-54.09684
2023-01-24 08:49:00+00:00,202.6498,2.5,12.41,47.84626,-54.09684
2023-01-24 08:59:00+00:00,209.2781,2.5,12.41,47.84626,-54.09684
2023-01-24 09:09:00+00:00,215.6298,2.5,12.41,47.84626,-54.09684
2023-01-24 09:19:00+00:00,223.2181,2.5,12.41,47.84626,-54.09684
2023-01-24 09:29:00+00:00,230.6147,2.5,12.41,47.84626,-54.09684
2023-01-24 09:39:00+00:00,235.8814,2.49,12.41,47.84626,-54.09684
2023-01-24 09:49:00+00:00,239.6397,2.49,12.41,47.84626,-54.09684
2023-01-24 09:59:00+00:00,249.1831,2.49,12.41,47.84626,-54.09684
2023-01-24 10:09:00+00:00,253.6381,2.49,12.41,47.84626,-54.09684
2023-01-24 10:19:00+00:00,256.3497,2.49,12.41,47.84626,-54.09684
2023-01-24 10:29:00+00:00,268.6514,2.49,12.41,47.84626,-54.09684
2023-01-24 10:39:00+00:00,279.6981,2.5,12.41,47.84626,-54.09684
2023-01-24 10:49:00+00:00,281.0814,2.49,12.41,47.84626,-54.09684
2023-01-24 10:59:00+00:00,286.0914,2.5,12.41,47.84626,-54.09684
2023-01-24 11:09:00+00:00,307.0847,2.5,12.41,47.84626,-54.09684
2023-01-24 11:19:00+00:00,331.3831,2.5,12.41,47.84626,-54.09684
2023-01-24 11:29:00+00:00,333.4847,2.5,12.41,47.84626,-54.09684
2023-01-24 11:39:00+00:00,334.2296,2.5,12.41,47.84626,-54.09684
2023-01-24 11:49:00+00:00,350.4747,2.5,12.41,47.84626,-54.09684
2023-01-24 11:59:00+00:00,359.7747,2.5,12.41,47.84626,-54.09684
2023-01-24 12:09:00+00:00,355.923,2.5,12.41,47.84626,-54.09684
2023-01-24 12:19:00+00:00,362.2546,2.5,12.41,47.84626,-54.09684
2023-01-24 12:29:00+00:00,386.6979,2.5,12.41,47.84626,-54.09684
2023-01-24 12:39:00+00:00,375.2213,2.5,12.41,47.84626,-54.09684
2023-01-24 12:49:00+00:00,355.5295,2.5,12.41,47.84626,-54.09684
2023-01-24 12:59:00+00:00,380.9846,2.5,12.41,47.84626,-54.09684
2023-01-24 13:09:00+00:00,404.3329,2.5,12.41,47.84626,-54.09684
2023-01-24 13:19:00+00:00,394.2762,2.5,12.41,47.84626,-54.09684
2023-01-24 13:29:00+00:00,379.4312,2.5,12.41,47.84626,-54.09684
2023-01-24 13:39:00+00:00,391.8546,2.5,12.41,47.84626,-54.09684
2023-01-24 13:49:00+00:00,398.1929,2.5,12.41,47.84626,-54.09684
2023-01-24 13:59:00+00:00,375.9563,2.5,12.41,47.84626,-54.09684
2023-01-24 14:09:00+00:00,376.9663,2.5,12.41,47.84626,-54.09684
2023-01-24 14:19:00+00:00,394.0846,2.5,12.41,47.84626,-54.09684
2023-01-24 14:29:00+00:00,389.7395,2.5,12.41,47.84626,-54.09684
2023-01-24 14:39:00+00:00,378.8146,2.5,12.41,47.84626,-54.09684
2023-01-24 14:49:00+00:00,386.0279,2.5,12.41,47.84626,-54.09684
2023-01-24 14:59:00+00:00,391.2178,2.5,12.41,47.84626,-54.09684
2023-01-24 15:09:00+00:00,379.7563,2.5,12.41,47.84626,-54.09684
2023-01-24 15:19:00+00:00,368.4062,2.5,12.41,47.84626,-54.09684
2023-01-24 15:29:00+00:00,372.4196,2.5,12.41,47.84626,-54.09684
2023-01-24 15:39:00+00:00,373.7329,2.5,12.41,47.84626,-54.09684
2023-01-24 15:49:00+00:00,355.7663,2.5,12.41,47.84626,-54.09684
2023-01-24 15:59:00+00:00,341.9096,2.5,12.41,47.84626,-54.09684
2023-01-24 16:09:00+00:00,332.8496,2.5,12.41,47.84626,-54.09684
2023-01-24 16:19:00+00:00,315.3063,2.5,12.33,47.84626,-54.09684
2023-01-24 16:29:00+00:00,303.123,2.5,12.33,47.84626,-54.09684
2023-01-24 16:39:00+00:00,297.4413,2.5,12.33,47.84626,-54.09684
2023-01-24 16:49:00+00:00,290.6064,2.5,12.33,47.84626,-54.09684
2023-01-24 16:59:00+00:00,283.0564,2.5,12.33,47.84626,-54.09684
2023-01-24 17:09:00+00:00,271.3464,2.5,12.33,47.84626,-54.09684
2023-01-24 17:19:01+00:00,257.6764,2.52,12.41,47.84626,-54.09684
2023-01-24 17:29:01+00:00,242.5298,2.54,12.41,47.84626,-54.09684
2023-01-24 17:39:01+00:00,228.3281,2.55,12.41,47.84626,-54.09684
2023-01-24 17:49:01+00:00,214.4398,2.57,12.41,47.84626,-54.09684
2023-01-24 17:59:01+00:00,204.1131,2.58,12.41,47.84626,-54.09684
2023-01-24 18:09:01+00:00,198.0564,2.58,12.41,47.84626,-54.09684
2023-01-24 18:19:00+00:00,188.4348,2.58,12.33,47.84626,-54.09684
2023-01-24 18:29:00+00:00,172.6581,2.59,12.33,47.84626,-54.09684
2023-01-24 18:39:00+00:00,172.7381,2.59,12.33,47.84626,-54.09684
2023-01-24 18:49:00+00:00,172.4348,2.6,12.33,47.84626,-54.09684
2023-01-24 18:59:00+00:00,160.7165,2.59,12.33,47.84626,-54.09684
2023-01-24 19:09:00+00:00,156.6832,2.59,12.33,47.84626,-54.09684
2023-01-24 19:19:00+00:00,156.7315,2.6,12.33,47.84626,-54.09684
2023-01-24 19:29:00+00:00,157.3198,2.6,12.33,47.84626,-54.09684
2023-01-24 19:39:00+00:00,152.0265,2.6,12.33,47.84626,-54.09684
2023-01-24 19:49:00+00:00,142.4032,2.6,12.33,47.84626,-54.09684
2023-01-24 19:59:00+00:00,150.9815,2.6,12.33,47.84626,-54.09684
2023-01-24 20:09:00+00:00,155.0799,2.59,12.33,47.84626,-54.09684
2023-01-24 20:19:01+00:00,144.5616,2.58,12.33,47.84626,-54.09684
2023-01-24 20:29:01+00:00,149.6582,2.58,12.33,47.84626,-54.09684
2023-01-24 20:39:01+00:00,167.9382,2.59,12.33,47.84626,-54.09684
2023-01-24 20:49:01+00:00,172.4998,2.59,12.33,47.84626,-54.09684
2023-01-24 20:59:01+00:00,174.0098,2.58,12.33,47.84626,-54.09684
2023-01-24 21:09:01+00:00,181.3581,2.58,12.33,47.84626,-54.09684
2023-01-24 21:19:00+00:00,190.4565,2.59,12.33,47.84626,-54.09684
2023-01-24 21:29:00+00:00,195.5848,2.58,12.33,47.84626,-54.09684
2023-01-24 21:39:00+00:00,194.5265,2.57,12.33,47.84626,-54.09684
2023-01-24 21:49:00+00:00,196.6298,2.57,12.33,47.84626,-54.09684
2023-01-24 21:59:00+00:00,201.2064,2.5,12.33,47.84626,-54.09684
2023-01-24 22:09:00+00:00,202.8298,2.5,12.33,47.84626,-54.09684
2023-01-24 22:19:00+00:00,205.5598,2.5,12.33,47.84626,-54.09684
2023-01-24 22:29:00+00:00,215.4948,2.56,12.33,47.84626,-54.09684
2023-01-24 22:39:00+00:00,227.0714,2.5,12.33,47.84626,-54.09684
2023-01-24 22:49:00+00:00,234.5831,2.5,12.33,47.84626,-54.09684
2023-01-24 22:59:00+00:00,239.1082,2.54,12.33,47.84626,-54.09684
2023-01-24 23:09:00+00:00,239.813,2.56,12.33,47.84626,-54.09684
2023-01-24 23:19:00+00:00,246.6564,2.57,12.33,47.84626,-54.09684
2023-01-24 23:29:00+00:00,259.4214,2.55,12.33,47.84626,-54.09684
2023-01-24 23:39:00+00:00,260.3947,2.5,12.33,47.84626,-54.09684
2023-01-24 23:49:00+00:00,260.1064,2.5,12.33,47.84626,-54.09684
2023-01-24 23:59:00+00:00,270.0531,2.5,12.33,47.84626,-54.09684
